N5SRF Weather Reports


time (UTC)temp
C
wind
direction
speed
KPH
gust
KPH
rain 1hr
cm
rain 24hr
cm
rain mn
cm
humidity
%
barometer
mb
20260507064808 17 28 6.4 9.7 0.00 0.00 0.00 95 1018.1
20260507064306 17 65 3.2 3.2 0.00 0.00 0.00 95 1018.1
20260507063804 17 74 3.2 3.2 0.00 0.00 0.00 95 1017.9
20260507063300 17 50 3.2 4.8 0.00 0.00 0.00 95 1018.1
20260507062757 17 13 6.4 8.0 0.00 0.00 0.00 95 1017.9
20260507062254 18 26 4.8 8.0 0.00 0.00 0.00 95 1018.1
20260507061753 18 14 3.2 3.2 0.00 0.00 0.00 95 1018.1
20260507061250 18 9 8.0 11.3 0.00 0.00 0.00 95 1018.0
20260507060748 18 335 6.4 8.0 0.00 0.00 0.00 95 1018.7
20260507060244 18 42 6.4 8.0 0.00 0.00 0.00 95 1018.4
20260507055741 18 5 8.0 9.7 0.00 0.05 0.05 95 1018.5
20260507055236 18 65 4.8 8.0 0.00 0.05 0.05 95 1018.1
20260507054733 18 15 4.8 8.0 0.00 0.05 0.05 94 1017.8
20260507054229 18 303 4.8 4.8 0.00 0.05 0.05 94 1017.9
20260507053727 18 325 9.7 11.3 0.00 0.05 0.05 94 1018.0
20260507053225 18 340 4.8 8.0 0.00 0.05 0.05 94 1018.0
20260507052723 18 89 1.6 1.6 0.00 0.05 0.05 93 1017.8
20260507052219 18 358 9.7 12.9 0.00 0.05 0.05 93 1017.9
20260507051717 18 354 6.4 8.0 0.00 0.05 0.05 93 1018.1
20260507051209 18 342 8.0 8.0 0.00 0.05 0.05 93 1017.8
20260507050705 18 3 8.0 9.7 0.00 0.05 0.05 93 1018.2
20260507050202 18 349 3.2 4.8 0.00 0.05 0.05 93 1018.1
20260507045659 19 22 6.4 9.7 0.00 0.05 0.05 93 1017.7
20260507045156 19 2 4.8 8.0 0.00 0.05 0.05 93 1017.7
20260507044652 19 31 4.8 8.0 0.00 0.05 0.05 92 1017.8
20260507044148 19 323 6.4 8.0 0.00 0.05 0.05 93 1018.0
20260507043645 19 24 3.2 4.8 0.00 0.05 0.05 93 1017.5
20260507043142 19 344 6.4 8.0 0.00 0.05 0.05 92 1017.5
20260507042638 20 2 6.4 11.3 0.00 0.05 0.05 92 1017.3
20260507042133 20 39 3.2 4.8 0.00 0.05 0.05 92 1017.8
20260507041630 20 323 4.8 4.8 0.00 0.05 0.05 92 1017.9
20260507041121 20 7 8.0 12.9 0.00 0.05 0.05 93 1017.9
20260507040619 20 323 8.0 9.7 0.00 0.05 0.05 92 1017.9
20260507040115 20 273 4.8 8.0 0.00 0.05 0.05 92 1017.8
20260507035610 20 275 3.2 3.2 0.00 0.05 0.05 92 1017.5
20260507035101 20 352 3.2 3.2 0.00 0.05 0.05 92 1017.3
20260507034558 20 250 1.6 3.2 0.00 0.05 0.05 92 1017.1
20260507034056 20 1 4.8 8.0 0.00 0.05 0.05 92 1017.3
20260507033554 20 335 4.8 4.8 0.00 0.05 0.05 92 1017.5
20260507033051 20 309 4.8 4.8 0.00 0.05 0.05 92 1017.2
20260507032548 20 303 8.0 11.3 0.00 0.05 0.05 92 1017.1
20260507032044 20 314 9.7 11.3 0.00 0.05 0.05 92 1017.1
20260507031541 20 309 3.2 3.2 0.00 0.05 0.05 92 1016.5
20260507031038 20 25 4.8 4.8 0.00 0.05 0.05 93 1016.6
20260507030534 20 343 4.8 8.0 0.00 0.05 0.05 93 1016.4
20260507030033 20 138 3.2 3.2 0.00 0.05 0.05 93 1016.5
20260507025529 20 293 3.2 3.2 0.00 0.05 0.05 94 1016.3
20260507025027 20 296 4.8 4.8 0.00 0.05 0.05 93 1016.4
20260507024524 20 272 4.8 4.8 0.00 0.05 0.05 93 1016.4
20260507024021 20 324 4.8 4.8 0.00 0.05 0.05 93 1016.2
20260507023516 20 296 3.2 3.2 0.00 0.05 0.05 93 1016.0
20260507023015 20 326 3.2 4.8 0.00 0.05 0.05 93 1015.9
20260507022510 20 352 4.8 4.8 0.00 0.05 0.05 93 1015.9
20260507022006 20 266 4.8 4.8 0.00 0.05 0.05 93 1015.8
20260507021501 20 290 4.8 8.0 0.00 0.05 0.05 93 1015.8
20260507020959 20 322 4.8 8.0 0.00 0.05 0.05 93 1015.6
20260507020456 20 327 4.8 4.8 0.00 0.05 0.05 93 1015.6
20260507015952 20 263 3.2 3.2 0.00 0.05 0.05 92 1015.5
20260507015451 20 328 4.8 8.0 0.00 0.05 0.05 92 1015.5
20260507014948 20 276 3.2 3.2 0.00 0.05 0.05 92 1015.3
20260507014444 20 271 4.8 4.8 0.00 0.05 0.05 92 1015.4
20260507013940 20 301 3.2 3.2 0.00 0.05 0.05 92 1015.1
20260507013437 21 293 3.2 4.8 0.00 0.05 0.05 92 1015.2
20260507012935 21 270 3.2 3.2 0.00 0.05 0.05 92 1015.0
20260507012431 21 205 1.6 1.6 0.00 0.05 0.05 92 1015.1
20260507011928 21 276 3.2 4.8 0.00 0.05 0.05 91 1015.0
20260507011426 21 319 4.8 4.8 0.00 0.05 0.05 91 1014.8
20260507010925 21 336 4.8 4.8 0.00 0.05 0.05 91 1014.8
20260507010421 21 323 6.4 9.7 0.00 0.05 0.05 91 1014.9
20260507005918 21 311 6.4 9.7 0.00 0.05 0.05 91 1014.7
20260507005415 21 289 3.2 3.2 0.00 0.05 0.05 90 1014.5
20260507004911 22 335 6.4 8.0 0.00 0.05 0.05 90 1014.5
20260507004408 22 327 6.4 8.0 0.00 0.05 0.05 90 1014.4
20260507003906 22 307 3.2 3.2 0.00 0.05 0.05 90 1014.3
20260507003401 22 343 11.3 12.9 0.00 0.05 0.05 90 1014.1
20260507002856 22 337 6.4 8.0 0.00 0.05 0.05 90 1013.9
20260507002353 22 309 4.8 4.8 0.00 0.05 0.05 90 1014.0
20260507001850 22 278 4.8 8.0 0.00 0.05 0.05 89 1014.0
20260507001347 23 305 6.4 8.0 0.00 0.05 0.05 89 1013.8
20260507000843 23 315 3.2 3.2 0.00 0.05 0.05 90 1013.9
20260507000339 23 264 3.2 4.8 0.00 0.05 0.05 90 1014.0
20260506235835 23 207 3.2 3.2 0.00 0.05 0.05 90 1013.8
20260506235332 23 256 1.6 3.2 0.00 0.05 0.05 90 1013.7
20260506234823 23 316 9.7 11.3 0.00 0.05 0.05 91 1013.4
20260506234321 23 330 6.4 9.7 0.00 0.05 0.05 91 1013.4
20260506233818 23 292 11.3 12.9 0.00 0.05 0.05 91 1013.6
20260506233314 24 320 6.4 9.7 0.00 0.05 0.05 91 1013.3
20260506232811 25 332 11.3 14.5 0.00 0.05 0.05 90 1013.3
20260506232307 26 347 12.9 14.5 0.00 0.05 0.05 88 1013.1
20260506231803 28 346 6.4 8.0 0.00 0.05 0.05 87 1012.9
20260506231301 28 123 1.6 1.6 0.00 0.05 0.05 89 1012.8
20260506230758 28 125 0.0 1.6 0.00 0.05 0.05 89 1012.8
20260506230255 28 125 0.0 0.0 0.00 0.05 0.05 89 1012.8
20260506225751 27 125 1.6 1.6 0.00 0.05 0.05 89 1012.7
20260506225249 27 125 0.0 0.0 0.00 0.05 0.05 90 1012.6
20260506224744 27 144 0.0 1.6 0.00 0.05 0.05 90 1012.5
20260506224242 27 137 0.0 0.0 0.00 0.05 0.05 90 1012.5
20260506223738 28 134 0.0 1.6 0.00 0.05 0.05 89 1012.5
20260506223234 28 138 0.0 0.0 0.00 0.05 0.05 88 1012.6
20260506222731 28 129 0.0 0.0 0.00 0.05 0.05 88 1012.6
20260506222226 28 139 0.0 0.0 0.00 0.05 0.05 88 1012.6
20260506221724 28 150 0.0 0.0 0.00 0.05 0.05 88 1012.6
20260506221222 28 150 1.6 1.6 0.00 0.05 0.05 88 1012.4
20260506220719 28 166 1.6 1.6 0.00 0.05 0.05 87 1012.3
20260506220214 28 139 0.0 0.0 0.00 0.05 0.05 87 1012.4
20260506215711 28 140 1.6 1.6 0.00 0.05 0.05 87 1012.4
20260506215206 28 139 1.6 3.2 0.00 0.05 0.05 86 1012.6
20260506214703 28 176 0.0 0.0 0.00 0.05 0.05 87 1012.5
20260506214200 28 148 0.0 0.0 0.00 0.05 0.05 87 1012.5
20260506213659 29 102 3.2 4.8 0.00 0.05 0.05 86 1012.5
20260506213156 29 149 1.6 1.6 0.00 0.05 0.05 84 1012.7
20260506212653 30 154 1.6 1.6 0.00 0.05 0.05 83 1012.5
20260506212148 29 163 1.6 1.6 0.00 0.05 0.05 84 1012.4
20260506211644 29 65 3.2 3.2 0.00 0.05 0.05 84 1012.8
20260506211141 28 190 1.6 1.6 0.00 0.05 0.05 85 1012.7
20260506210638 28 126 3.2 3.2 0.00 0.05 0.05 85 1012.8
20260506210134 29 141 1.6 1.6 0.00 0.05 0.05 83 1012.7
20260506205631 28 208 0.0 0.0 0.00 0.05 0.05 85 1012.7
20260506205126 28 127 1.6 1.6 0.00 0.05 0.05 86 1012.7
20260506204625 28 190 0.0 0.0 0.00 0.05 0.05 85 1013.0
20260506204121 28 119 1.6 1.6 0.00 0.05 0.05 86 1012.9
20260506203620 28 178 1.6 1.6 0.00 0.05 0.05 87 1013.0
20260506203116 28 161 0.0 0.0 0.00 0.05 0.05 88 1013.0
20260506202614 27 155 0.0 0.0 0.00 0.05 0.05 88 1013.1
20260506202110 27 149 0.0 0.0 0.00 0.05 0.05 89 1013.3
20260506201607 27 157 0.0 1.6 0.00 0.05 0.05 90 1013.2
20260506201104 27 164 1.6 1.6 0.00 0.05 0.05 90 1013.2
20260506200600 27 181 0.0 0.0 0.00 0.05 0.05 91 1013.4
20260506200057 27 159 0.0 0.0 0.00 0.05 0.05 91 1013.5
20260506195554 26 157 0.0 0.0 0.00 0.05 0.05 90 1013.2
20260506195050 26 156 0.0 0.0 0.00 0.05 0.05 90 1013.4
20260506194548 26 170 1.6 1.6 0.00 0.05 0.05 90 1013.4
20260506194044 26 151 0.0 0.0 0.00 0.05 0.05 90 1013.4
20260506193541 26 119 1.6 1.6 0.00 0.05 0.05 90 1013.4
20260506193038 26 165 0.0 0.0 0.00 0.05 0.05 91 1013.4
20260506192535 26 158 1.6 3.2 0.00 0.05 0.05 90 1013.6
20260506192030 27 127 3.2 3.2 0.00 0.05 0.05 90 1013.4
20260506191528 27 139 0.0 0.0 0.00 0.05 0.05 89 1013.6
20260506191024 27 116 3.2 3.2 0.00 0.05 0.05 89 1013.6
20260506190521 27 138 0.0 0.0 0.00 0.05 0.05 89 1013.5
20260506190019 27 236 1.6 3.2 0.00 0.05 0.05 88 1013.5
20260506185515 27 241 1.6 3.2 0.00 0.05 0.05 89 1013.7
20260506185011 27 217 0.0 1.6 0.00 0.05 0.05 90 1013.8
20260506184509 27 93 1.6 1.6 0.00 0.05 0.05 92 1013.8
20260506184006 26 206 3.2 3.2 0.00 0.05 0.05 93 1013.8
20260506183501 26 139 3.2 3.2 0.00 0.05 0.05 96 1014.0
20260506182959 26 147 3.2 3.2 0.00 0.05 0.05 95 1014.2
20260506182456 26 148 0.0 0.0 0.00 0.05 0.05 97 1014.3
20260506181954 26 154 1.6 1.6 0.00 0.05 0.05 96 1014.4
20260506181451 26 163 0.0 0.0 0.00 0.05 0.05 96 1014.8
20260506180947 26 163 1.6 1.6 0.00 0.05 0.05 95 1014.8
20260506180444 26 163 0.0 0.0 0.18 0.05 0.05 95 1014.8
20260506175941 26 163 0.0 0.0 0.30 0.05 0.05 94 1014.9
20260506175437 26 163 0.0 0.0 0.13 0.03 0.03 93 1015.2
20260506174928 26 164 0.0 0.0 0.00 0.00 0.00 92 1015.2
20260506174426 26 163 0.0 0.0 0.00 0.00 0.00 91 1015.3
20260506173918 26 163 0.0 0.0 0.00 0.00 0.00 90 1015.4
20260506173414 26 163 0.0 0.0 0.00 0.00 0.00 89 1015.4
20260506172912 26 163 0.0 0.0 0.00 0.00 0.00 89 1015.4
20260506172408 27 164 0.0 0.0 0.00 0.00 0.00 88 1015.3
20260506171905 27 164 0.0 0.0 0.00 0.00 0.00 87 1015.5
20260506171402 27 164 0.0 0.0 0.00 0.00 0.00 86 1015.7
20260506170900 27 164 0.0 1.6 0.00 0.00 0.00 86 1015.7
20260506170355 27 178 0.0 1.6 0.00 0.00 0.00 85 1015.4
20260506165850 27 173 3.2 3.2 0.00 0.00 0.00 85 1015.7
20260506165347 27 183 4.8 4.8 0.00 0.00 0.00 85 1015.4
20260506164843 28 172 1.6 1.6 0.00 0.00 0.00 84 1015.5
20260506164340 28 158 0.0 0.0 0.00 0.00 0.00 84 1015.3
20260506163838 28 177 3.2 3.2 0.00 0.00 0.00 84 1015.4
20260506163332 28 175 1.6 1.6 0.00 0.00 0.00 84 1015.0
20260506162828 27 172 3.2 3.2 0.00 0.00 0.00 84 1015.1
20260506162325 28 180 3.2 3.2 0.00 0.00 0.00 83 1014.9
20260506161822 28 180 4.8 4.8 0.00 0.00 0.00 84 1014.8
20260506161320 28 185 1.6 3.2 0.00 0.00 0.00 85 1014.9
20260506160812 27 122 4.8 8.0 0.00 0.00 0.00 86 1014.8
20260506160308 27 119 3.2 4.8 0.00 0.00 0.00 87 1014.6
20260506155807 27 155 4.8 8.0 0.00 0.00 0.00 87 1014.8
20260506155306 27 164 3.2 4.8 0.00 0.00 0.00 88 1014.9
20260506153415 26 117 1.6 3.2 0.00 0.00 0.00 90 1014.6
20260506152913 26 156 1.6 3.2 0.00 0.00 0.00 90 1014.8
20260506152409 26 178 0.0 1.6 0.00 0.00 0.00 92 1014.9
20260506151908 26 205 4.8 8.0 0.00 0.00 0.00 92 1015.0
20260506151404 25 177 0.0 0.0 0.00 0.00 0.00 93 1015.0
20260506150902 25 146 4.8 4.8 0.00 0.00 0.00 93 1014.8
20260506150358 25 187 0.0 1.6 0.00 0.00 0.00 93 1014.8
20260506145855 25 193 0.0 1.6 0.00 0.00 0.00 93 1014.6
20260506145351 25 162 1.6 1.6 0.00 0.00 0.00 93 1014.6
20260506144849 25 112 3.2 3.2 0.00 0.00 0.00 93 1014.5
20260506144345 25 186 1.6 1.6 0.00 0.00 0.00 94 1014.4
20260506143844 25 111 1.6 4.8 0.00 0.00 0.00 94 1014.3
20260506143340 25 194 1.6 1.6 0.00 0.00 0.00 94 1014.4
20260506142839 25 146 0.0 0.0 0.00 0.00 0.00 95 1014.3
20260506142336 25 180 3.2 4.8 0.00 0.00 0.00 95 1014.4
20260506141834 25 212 1.6 1.6 0.00 0.00 0.00 95 1014.5
20260506141332 25 174 3.2 3.2 0.00 0.00 0.00 96 1014.3
20260506140830 25 66 3.2 4.8 0.00 0.00 0.00 96 1014.3
20260506140327 25 174 3.2 4.8 0.00 0.00 0.00 96 1014.1
20260506135824 25 178 1.6 1.6 0.00 0.00 0.00 97 1014.1
20260506135320 24 165 1.6 1.6 0.00 0.00 0.00 97 1014.3
20260506134817 24 190 1.6 1.6 0.00 0.00 0.00 97 1014.6
20260506134313 24 142 4.8 4.8 0.00 0.00 0.00 98 1014.3
20260506133810 24 166 0.0 0.0 0.00 0.00 0.00 98 1014.4
20260506133307 24 162 3.2 3.2 0.00 0.00 0.00 98 1014.5
20260506132804 24 177 0.0 0.0 0.00 0.00 0.00 98 1014.4
20260506132301 23 171 0.0 1.6 0.00 0.00 0.00 98 1014.4
20260506131759 23 154 1.6 1.6 0.00 0.00 0.00 98 1014.6
20260506131254 23 153 1.6 3.2 0.00 0.00 0.00 98 1014.6
20260506130752 23 178 0.0 1.6 0.00 0.00 0.00 99 1014.6
20260506130248 23 178 0.0 0.0 0.00 0.00 0.00 99 1014.5
20260506125747 23 176 1.6 1.6 0.00 0.00 0.00 99 1014.4
20260506125244 23 171 0.0 0.0 0.00 0.00 0.00 99 1014.4
20260506124742 23 173 0.0 0.0 0.00 0.00 0.00 99 1014.2
20260506124240 23 173 0.0 0.0 0.00 0.00 0.00 99 1014.3
20260506123737 23 173 0.0 0.0 0.00 0.00 0.00 99 1014.3
20260506123236 23 173 0.0 0.0 0.00 0.00 0.00 99 1014.2
20260506122732 23 173 1.6 1.6 0.00 0.00 0.00 99 1014.1
20260506122229 23 174 0.0 0.0 0.00 0.00 0.00 99 1014.2
20260506121728 23 174 0.0 0.0 0.00 0.00 0.00 99 1014.2
20260506121224 23 173 0.0 0.0 0.00 0.00 0.00 99 1014.0
20260506120722 23 174 0.0 0.0 0.00 0.00 0.00 99 1014.1
20260506120219 23 182 0.0 0.0 0.00 0.00 0.00 99 1013.9
20260506115717 23 184 1.6 3.2 0.00 0.00 0.00 98 1014.0
20260506115215 23 193 0.0 0.0 0.00 0.00 0.00 98 1013.8
20260506114712 23 205 0.0 0.0 0.00 0.00 0.00 98 1013.8
20260506114209 23 187 0.0 0.0 0.00 0.00 0.00 98 1013.5
20260506113708 23 177 0.0 0.0 0.00 0.00 0.00 98 1013.6
20260506113205 23 177 1.6 1.6 0.00 0.00 0.00 98 1013.7
20260506112701 23 188 0.0 0.0 0.00 0.00 0.00 98 1013.4
20260506112159 23 188 0.0 0.0 0.00 0.00 0.00 98 1013.4
20260506111656 23 180 0.0 0.0 0.00 0.00 0.00 97 1013.5
20260506111154 23 183 0.0 0.0 0.00 0.00 0.00 97 1013.4
20260506110651 23 183 0.0 0.0 0.00 0.00 0.00 97 1013.2
20260506110148 23 183 0.0 0.0 0.00 0.00 0.00 97 1013.4
20260506105644 23 195 0.0 0.0 0.00 0.00 0.00 97 1013.3
20260506105141 23 182 0.0 0.0 0.00 0.00 0.00 97 1013.1
20260506104640 23 179 1.6 1.6 0.00 0.00 0.00 97 1013.0
20260506104137 23 108 3.2 3.2 0.00 0.00 0.00 97 1013.1
20260506103634 23 165 1.6 1.6 0.00 0.00 0.00 97 1013.2
20260506103131 23 158 4.8 8.0 0.00 0.00 0.00 97 1013.0
20260506102629 23 180 0.0 0.0 0.00 0.00 0.00 96 1013.1
20260506102126 23 189 1.6 3.2 0.00 0.00 0.00 96 1013.2
20260506101623 23 188 1.6 3.2 0.00 0.00 0.00 96 1013.1
20260506101120 23 193 1.6 1.6 0.00 0.00 0.00 96 1013.2
20260506100618 23 176 1.6 1.6 0.00 0.00 0.00 97 1013.0
20260506100116 23 284 3.2 3.2 0.00 0.00 0.00 97 1013.1
20260506095615 23 167 1.6 1.6 0.00 0.00 0.00 96 1013.1
20260506095111 23 193 1.6 1.6 0.00 0.00 0.00 96 1012.8
20260506094608 23 90 0.0 0.0 0.00 0.00 0.00 96 1013.0
20260506094106 23 156 3.2 3.2 0.00 0.00 0.00 97 1013.0
20260506093604 23 194 3.2 3.2 0.00 0.00 0.00 97 1012.8
20260506093101 23 236 1.6 3.2 0.00 0.00 0.00 97 1012.6
20260506092559 23 152 9.7 11.3 0.00 0.00 0.00 97 1012.7
20260506092055 23 129 1.6 1.6 0.00 0.00 0.00 97 1012.5
20260506091554 23 169 0.0 1.6 0.00 0.00 0.00 97 1012.5
20260506091051 23 142 1.6 3.2 0.00 0.00 0.00 97 1012.6
20260506090549 23 191 0.0 1.6 0.00 0.00 0.00 97 1012.7
20260506090045 23 162 1.6 1.6 0.00 0.00 0.00 97 1012.7
20260506085542 23 161 4.8 8.0 0.00 0.00 0.00 97 1013.0
20260506085038 23 178 1.6 3.2 0.00 0.00 0.00 97 1012.8
20260506084535 23 165 1.6 3.2 0.00 0.00 0.00 97 1012.7
20260506084031 23 175 4.8 4.8 0.00 0.00 0.00 97 1012.9
20260506083529 23 156 4.8 8.0 0.00 0.00 0.00 97 1012.7
20260506083026 23 144 4.8 4.8 0.00 0.00 0.00 97 1012.8
20260506082523 23 136 9.7 12.9 0.00 0.00 0.00 97 1012.7
20260506082018 23 152 1.6 1.6 0.00 0.00 0.00 97 1012.5
20260506081517 23 123 1.6 1.6 0.00 0.00 0.00 97 1012.5
20260506081014 23 146 3.2 8.0 0.00 0.00 0.00 97 1012.5
20260506080511 23 161 4.8 8.0 0.00 0.00 0.00 97 1012.5
20260506073455 23 177 3.2 3.2 0.00 0.00 0.00 96 1012.5
20260506072952 23 244 1.6 1.6 0.00 0.00 0.00 96 1013.0
20260506072449 23 163 1.6 3.2 0.00 0.00 0.00 96 1012.8
20260506071947 23 183 0.0 0.0 0.00 0.00 0.00 96 1013.2
20260506071444 23 189 3.2 4.8 0.00 0.00 0.00 96 1013.2
20260506070941 23 181 0.0 1.6 0.00 0.00 0.00 96 1013.4
20260506070438 23 159 4.8 4.8 0.00 0.00 0.00 96 1013.5